Notices

What's New in latest Release from April 7th, 2021:

- Updated Glossary, including Speed of Maximum Gust, and Total Hourly Precipitation

- Updated national and regional climate services offices contacts and prices information

- Addition of station inventory lists for 1981-2010, 1971-2000, and 1961-1990 Normals.

If you haven't already, please take our survey and provide feedback about our website: https://eccc.sondage-survey.ca/f/LanguageSelection.aspx?s=442ca660-fcf1-47c0-95a9-59707d6fd709

Hourly Data Report for November 25, 2020

SHEARWATER RCS
NOVA SCOTIA
Current Station Operator: ECCC - MSC

44°37'47.000" N
63°30'48.000" W
24.00 m
8205092
71264
AAW

Download Data

Hourly Data (November 2020)
Hourly Data Report for November 25, 2020
TIME
LST
Temp Definition
°C
Dew Point Definition
°C
Rel Hum Definition
%
Precip. Amount Definition
mm

Wind Dir Definition
10's deg

Wind Spd Definition
km/h
Visibility Definition
km
Stn Press Definition
kPa
Hmdx Definition


Wind Chill Definition


Weather Definition


00:00 -3.6 -11.6 54 0.0 34 18   102.50   -9 LegendNANA
01:00 -4.3 -12.1 54 0.0 33 13   102.65   -9 LegendNANA
02:00 -4.7 -12.0 57 0.0 31 10   102.75   -9 LegendNANA
03:00 -5.2 -11.1 63 0.0 31 9   102.84   -9 LegendNANA
04:00 -5.2 -10.8 65 0.0 30 7   102.97   -8 LegendNANA
05:00 -5.5 -10.5 68 0.0 31 6   103.06   -8 LegendNANA
06:00 -5.6 -10.2 70 0.0 36 5   103.02   -8 LegendNANA
07:00 -5.8 -9.9 73 0.0 36 10   103.11   -10 LegendNANA
08:00 -5.4 -9.6 72 0.0 32 5   103.23   -8 LegendNANA
09:00 -3.7 -9.2 65 0.0 35 7   103.25   -7 LegendNANA
10:00 -2.6 -8.3 65 0.0 30 2   103.30   -3 LegendNANA
11:00 -1.1 -6.5 67 0.0 11 5   103.21   -3 LegendNANA
12:00 -0.3 -5.0 71 0.0 10 5   103.13   -2 LegendNANA
13:00 0.4 -4.0 72 0.0 10 7   103.09     LegendNANA
14:00 1.9 -3.8 66 0.0 20 10   103.06     LegendNANA
15:00 2.3 -3.5 66 0.0 18 12   103.00     LegendNANA
16:00 2.7 -3.3 65 0.0 19 15   102.96     LegendNANA
17:00 3.1 -2.5 66 0.0 19 12   102.93     LegendNANA
18:00 2.6 0.0 83 0.0 19 9   102.89     LegendNANA
19:00 3.2 -0.6 76 0.0 22 8   102.83     LegendNANA
20:00 4.2 -1.2 68 0.0 18 16   102.70     LegendNANA
21:00 5.1 0.0 70 0.0 19 19   102.66     LegendNANA
22:00 5.5 1.1 73 0.0 18 18   102.59     LegendNANA
23:00 5.9 1.7 74 0.0 19 16   102.50     LegendNANA

Notes on Data Quality.

Legend

  • E = Estimated
  • M = Missing
  • NA = Not Available*
  • [empty] = Indicates an unobserved value
Date modified: